112  
ASUS41 KAKQ 192015  
RWRAKQ  
 
REGIONAL WEATHER ROUNDUP  
NATIONAL WEATHER SERVICE WAKEFIELD VA  
400 PM EDT FRI APR 19 2019  
 
NOTE: "FAIR" INDICATES FEW OR NO CLOUDS BELOW 12,000 FEET WITH NO  
SIGNIFICANT WEATHER AND/OR S TO VISIBILITY
. * = DENOTES  
STATION MAY NOT REPORT PRECIPITATION (E.G., RAIN,SNOW,ETC.),
 
THUNDER OR FOG.  
 
VAZ042-051-052>054-056-192100-  
NORTHERN VIRGINIA  
 
CITY SKY/WX TMP DP RH WIND PRES REMARKS
 
WASH NATIONAL LGT RAIN 72 67 84 S14 29.64F  
DULLES LGT RAIN 70 66 87 S16G24 29.61F  
FORT BELVOIR FAIR 71 68 90 SE9 29.63F  
QUANTICO CLOUDY 71 68 90 S20 29.63F  
FREDERICKSBRG* CLOUDY 74 69 84 SE14 29.62F  
STAFFORD* CLOUDY 74 73 96 S9G18 29.66F  
WARRENTON CLOUDY 73 66 77 SE10G16 29.60F  
CULPEPER* PTSUNNY 73 68 83 S10G22 29.60F  
MANASSAS* LGT RAIN 72 68 87 S16G23 29.61F  
LEESBURG* CLOUDY 68 68 100 S17G25 29.61F  
WINCHESTER CLOUDY 66 63 88 S14G30 29.58F  
FRONT ROYAL* CLOUDY 68 64 88 S13G22 29.55F  
LURAY* CLOUDY 72 63 73 S12G20 29.56F  

 
 
VAZ048-049-060>072-079>083-192100-  
CENTRAL AND SOUTH CENTRAL VIRGINIA  
 
CITY SKY/WX TMP DP RH WIND PRES REMARKS
 
RICHMOND CLOUDY 74 69 85 S14G24 29.65F  
CHESTERFIELD* MOCLDY 74 68 81 S10G17 29.66F  
PETERSBURG* LGT RAIN 74 65 75 S13G25 29.67F  
HANOVER PTSUNNY 74 67 78 S14G23 29.65F  
TAPPAHANNOCK* FAIR 72 68 88 S14G21 29.68F  
QUINTON* CLOUDY 71 69 91 SE10G18 29.67F  
CHARLOTTSVILLE CLOUDY 72 64 76 S15 29.59F  
GORDONSVILLE* CLOUDY 72 69 90 S13G22 29.59F  
ORANGE* CLOUDY 70 66 88 S10G17 29.59F  
LOUISA* CLOUDY 73 66 77 S17G28 29.64F  
BUMPASS* NOT AVBL  
FARMVILLE* CLOUDY 73 65 78 S15G22 29.60F  
CREWE* MOCLDY 73 72 99 S10G24 29.63F  
FORT PICKETT* CLOUDY 72 71 97 S15G32 29.65F  
CHASE CITY* CLOUDY 71 65 80 S14G23 29.62F  
CLARKSVILLE* CLOUDY 70 68 94 S10G17 29.61F  
SOUTH HILL* CLOUDY 69 69 97 S14G23 29.71F  
LAWRENCEVILLE* CLOUDY 71 68 90 S9G17 29.67F  
EMPORIA* CLOUDY 70 67 88 SE10G21 29.70F  

 
 
VAZ088>098-192100-  
SOUTHEAST VIRGINIA  
 
CITY SKY/WX TMP DP RH WIND PRES REMARKS
 
NORFOLK PTSUNNY 78 65 63 S16G32 29.71F  
VIRGINIA BEACH PTSUNNY 76 66 71 S17G30 29.72F  
NORFOLK NAVAL CLOUDY 76 66 71 S10G26 29.72F  
WEST POINT* CLOUDY 71 69 91 S13G22 29.72S  
SALUDA* MOCLDY 74 71 90 S16 29.71F  
NEWPORT NEWS LGT RAIN 76 68 76 S20G25 29.71F  
LANGLEY AFB LGT RAIN 75 68 78 S15G23 29.70F  
FORT EUSTIS DRIZZLE 74 68 81 S15G22 29.68F  
WILLIAMSBURG* CLOUDY 72 66 83 S10G24 29.72F VSB 3/4  
HR EXEC AP* HVY RAIN 72 68 88 SW12 29.73F FOG  
FRANKLIN* LGT RAIN 71 71 98 S7 29.71F  
US460-WAKEFLD LGT RAIN 73 69 87 S12G18 29.69F  

 
 
VAZ020-022-025-037-045-192100-  
WEST CENTRAL AND SOUTHWEST VIRGINIA  
 
CITY SKY/WX TMP DP RH WIND PRES REMARKS
 
STAUNTON* FAIR 71 62 74 S12G18 29.57F  
WAYNESBORO* CLOUDY 69 63 79 SE14G25 29.58F  
HOT SPRINGS VA TSTM 55 55 100 W23G29 29.63F VSB<1/4  
LYNCHBURG FAIR 72 64 76 S18G25 29.56F  
DANVILLE LGT RAIN 68 67 96 S6 29.56F FOG  
SOUTH BOSTON* CLOUDY 71 66 84 SE12G21 29.59F  
MARTINSVILLE CLOUDY 66 65 96 CALM 29.55F  
ROANOKE HVY RAIN 62 59 90 W7G24 29.58R FOG  
BLACKSBURG RAIN 57 57 99 N7 29.59F  
DUBLIN* RAIN 58 57 97 NE6 29.57F  
MARION* CLOUDY 57 57 99 CALM 29.55F  
HILLSVILLE* CLOUDY 55 54 96 NE7 29.54F  
RICHLANDS* LGT RAIN 53 51 95 NE6 29.51F  
WISE* LGT RAIN 55 55 100 SE8 29.50F  
ABINGDON* RAIN 55 55 100 W8 29.53R  

 
 
MDZ021>025-VAZ099-100-192100-  
SOUTHERN MARYLAND AND THE DELMARVA PENINSULA  
 
CITY SKY/WX TMP DP RH WIND PRES REMARKS
 
PATUXENT RIVER LGT RAIN 67 65 93 SE13G20 29.69F  
BAY BRIDGE APT PTSUNNY 68 68 100 S14 29.69F  
LEONARDTOWN CLOUDY 68 64 88 SE7 29.70F  
DOVER FAIR 77 64 63 S20 29.72F  
GEORGETOWN FAIR 76 66 71 S22G31 29.74F  
EASTON PTSUNNY 75 66 73 SE13G25 29.74F  
CAMBRIDGE MOSUNNY 75 66 73 S20G28 29.71F  
SALISBURY PTSUNNY 74 66 76 S15G24 29.74F  
TANGIER FAIR 68 64 88 SE17G23 29.73F  
OCEAN CITY CLOUDY 62 59 90 S13G21 29.79F  
WALLOPS ISLAND FAIR 68 63 84 S25G36 29.77F  
ACCOMACK* FAIR 71 66 85 S20G32 29.76S  

 
 
NCZ012>017-030>032-192100-  
NORTH CENTRAL AND EASTERN NORTH CAROLINA  
 
CITY SKY/WX TMP DP RH WIND PRES REMARKS
 
ROANOKE RAPIDS RAIN 68 68 100 S7 29.68F  
RALEIGH CLOUDY 72 66 81 S17G37 29.60F  
ELIZABETH CITY PTSUNNY 77 65 66 S25G44 29.76F  
AHOSKIE* PTSUNNY 70 70 100 S10 29.70F  
EDENTON* CLOUDY 77 70 79 S23G32 29.74F  
CURRITUCK* CLOUDY 77 68 74 MISG 29.77S  
KILL DEVIL HLS CLOUDY 74 67 78 S15G28 29.78F  
MANTEO CLOUDY 74 67 81 S21G28 29.80F  
CAPE HATTERAS CLOUDY 78 68 71 S21G31 29.83F  
TARBORO* NOT AVBL  
GOLDSBORO TSTM 75 69 82 S17G25 29.63F  
WASHINGTON CLOUDY 77 68 74 S16G30 29.72F  
GREENVILLE FAIR 77 68 73 S21G30 29.71F  
NEW BERN CLOUDY 78 69 73 S24G36 29.75F  
WILMINGTON PTSUNNY 78 67 68 S23G35 29.69F  

 
 
VAZ048-192100-  
ELSEWHERE  
 
CITY SKY/WX TMP DP RH WIND PRES REMARKS
 
HARRISBURG PA LGT RAIN 66 64 93 SE12 29.65F FOG  
BALTIMORE LGT RAIN 68 66 93 SE8 29.67F FOG  
ANNAPOLIS PTSUNNY 71 64 78 S16G24 29.68F  
ANDREWS AFB LGT RAIN 70 68 93 SE13 29.64F  
PHILADELPHIA CLOUDY 75 63 66 S13 29.73F  
HENDERSON NC CLOUDY 69 63 82 S15G21 29.61F  
GREENSBORO CLOUDY 71 69 93 S17 29.52F  
ROCKY MOUNT HVY RAIN 69 68 96 S7 29.66F FOG  

 
 
VAZ100-192100-  
MARINE  
 
STATION/POSITION TIME TEMP WIND PRES WAVE SWELL
 
AIR SEA DIR/SP/G HT/PER HT/PER  
(UTC) (F) (DEG/KT/KT) (MB) (FT/S) (FT/S)  
BRANDYWINE LGT 1948 1007.9F  
CAPE MAY NJ 1948 63 56 170/ 16/ 26 1007.8F  
LEWES DE 1948 73 54 200/ 13/ 23 1007.8F  
15NM E FENWICK I 1950 50 1008.9F 5/ 8  
OCEAN-CITY-INLET 1936 58 55 210/ 10/ 12 1009.5F  
WACHAPREAGUE VA 1948 66 67 190/ 20/ 26 1007.4F  
THOMAS POINT MD 2000 64 56 130/ 18/ 19 1005.4F  
COVE POINT MD 1948 61 190/ 15/ 16 1006.3F  
SOLOMONS ISLAND 1936 65 58 130/ 13/ 15 1005.0F  
BISHOPS HEAD MD 1936 67 68 150/ 20/ 23 1006.7F  
PINEY POINT MD 1948 160/ 15/ 16 N/A  
CAMBRIDGE MD 1936 74 62 1006.0F  
LEWISETTA VA 1936 71 59 160/ 11/ 15 1005.4F  
STINGRAY PT 1954 61 58 200/ 14/ 16 1004.8F  
YORK RVR RNG VA 1948 70 190/ 17/ 19 1006.7F  
YORKTOWN VA 1948 73 60 180/ 11/ 16 1005.6F  
DOMINION TERM VA 1948 73 180/ 14/ 18 1006.6F  
KIPTOPEKE VA 1942 60 170/ 22/ 27 N/A  
CAPE HENRY VA 1948 67 150/ 16/ 22 1006.9F  
WILLOUBY STN VA 1942 76 180/ 24/ 28 1005.3F  
S CRANEY ISL VA 1948 73 180/ 17/ 25 1006.0F  
CAPE HENRY BUOY 2000 56 N/A 6/ 8  
1ST LANDING BUOY 1950 71 190/ 17/ 23 1006.6F  
64NM E OF VA BCH 1950 62 55 170/ 17/ 19 1010.6F 9/ 8  
DUCK PIER NC 1948 71 53 170/ 27/ 37 1007.9F  
OREGON INLET NC 1948 75 69 160/ 18/ 27 1009.7F  
HATTERAS NC 1948 75 69 170/ 17/ 22 1010.0F  
CAPE LOOKOUT NC 2000 72 170/ 24/ 26 1008.7F  

 
 
 
CLICK HERE TO GO TO PREVIOUS BULLETINS.

The Nexlab VA Page
The Nexlab NC Page
The Nexlab MD Page Main Text Page